Tracking 31027 objects as of 19-Jul-2025
HD Live streaming from Space Station
objects crossing your sky now

STARLINK-31938

Track STARLINK-31938 now!
10-day predictions
STARLINK-31938 is classified as:


NORAD ID: 59865
Int'l Code: 2024-098H
Perigee: 489.4 km
Apogee: 491.0 km
Inclination: 43.0 °
Period: 94.3 minutes
Semi major axis: 6861 km
RCS: Unknown
Launch date: May 24, 2024
Source: United States (US)
Launch site: AIR FORCE EASTERN TEST RANGE (AFETR)
Your satellite tracking list
SES-6
Track 1 satellite(s)




NASA's NSSDC Master Catalog

Two Line Element Set (TLE):
1 59865U 24098H   25199.24143317  .00002177  00000-0  88599-4 0  9997
2 59865  42.9992 161.7441 0001120 267.9596  92.1128 15.27577477 65996
Source of the keplerian elements: AFSPC